Location: Gro� Glienicke
(52.4675°N, 13.1079°E)
Time: 08:27:33
(UTC+00:00)

NOSS 3-3 (C) - Pass Details

Date: 06 July 2020
Orbit: 824 x 1388 km, 63.4° (Epoch: 01 August)

Event Time Altitude Azimuth Distance (km) Brightness Sun altitude
Rises 21:33:07 0° 225° (SW) 3,448 6.7 -11.9°
Reaches altitude 10° 21:35:28 10° 226° (SW) 2,561 6.0 -12.0°
Maximum altitude 21:41:26 88° 318° (NW) 981 4.0 -12.4°
Drops below altitude 10° 21:48:19 10° 47° (NE) 2,933 6.8 -12.8°
Sets 21:51:10 0° 48° (NE) 3,982 7.5 -12.9°
